Location: Cerbedi�res
(48.2182°N, 1.4849°W)
Time: 22:32:04
(UTC+00:00)

USA 307 - Pass Details

Date: 03 March 2021
Orbit: 567 x 577 km, 54.0° (Epoch: 20 April)

Event Time Altitude Azimuth Distance (km) Brightness Sun altitude
Rises 19:54:27 0° 288° (WNW) 2,785 8.0 -20.8°
Reaches altitude 10° 19:56:50 10° 296° (WNW) 1,885 6.7 -21.2°
Maximum altitude 20:00:52 38° 6° (N) 879 3.8 -21.9°
Enters shadow 20:01:32 36° 29° (NNE) 921 3.8 -22.0°
